FW1093 Weather Reports


Display with metric or nautical units.
time (UTC)temp
F
wind
direction
speed
MPH
gust
MPH
rain 1hr
in
rain 24hr
in
rain mn
in
humidity
%
barometer
mb
20260902095321 61 297 0.0 0.0 0.00 0.12 0.00 97 1020.9
20260902094358 61 297 0.0 0.0 0.00 0.12 0.00 97 1020.7
20260902093326 61 297 0.0 0.0 0.00 0.12 0.00 97 1020.6
20260902092344 61 297 0.0 0.0 0.00 0.12 0.00 97 1020.6
20260902091318 61 297 0.0 0.0 0.00 0.12 0.00 96 1020.3
20260902090357 61 297 0.0 0.0 0.00 0.12 0.00 96 1020.3
20260902085330 61 297 0.0 0.0 0.00 0.12 0.00 96 1020.3
20260902084324 61 297 0.0 0.0 0.00 0.12 0.00 96 1020.1
20260902083342 61 310 0.0 1.0 0.00 0.12 0.00 96 1020.1
20260902082314 61 285 0.0 1.0 0.00 0.12 0.00 97 1019.9
20260902081333 61 283 0.0 1.0 0.00 0.12 0.00 97 1020.0
20260902080334 61 284 0.0 0.0 0.00 0.12 0.00 97 1019.9
20260902075327 61 284 0.0 1.0 0.00 0.21 0.00 97 1019.9
20260902074321 61 283 0.0 1.0 0.00 0.21 0.00 97 1019.9
20260902073313 61 282 0.0 1.0 0.00 0.21 0.00 97 1019.8
20260902072334 61 281 0.0 1.0 0.00 0.21 0.00 97 1019.8
20260902071336 61 281 0.0 1.0 0.00 0.21 0.00 97 1019.6
20260902070331 61 281 0.0 1.0 0.00 0.21 0.00 97 1019.9
20260902065325 61 281 0.0 1.0 0.00 0.33 0.00 97 1019.8
20260902064318 61 280 0.0 0.0 0.00 0.33 0.00 97 1019.8
20260902063329 61 280 0.0 0.0 0.00 0.33 0.00 97 1019.8
20260902062352 61 280 0.0 1.0 0.00 0.33 0.00 97 1019.8
20260902061324 62 280 0.0 1.0 0.00 0.33 0.00 97 1019.8
20260902060337 61 281 0.0 0.0 0.00 0.33 0.00 97 1019.8
20260902055331 62 281 0.0 0.0 0.00 0.35 0.00 97 1020.0
20260902054324 61 281 0.0 1.0 0.00 0.35 0.00 97 1019.9
20260902053343 61 281 0.0 1.0 0.00 0.35 0.00 97 1020.1
20260902052315 61 281 0.0 0.0 0.00 0.35 0.00 97 1019.9
20260902051311 61 281 0.0 1.0 0.00 0.35 0.00 97 1019.9
20260902050350 61 281 0.0 0.0 0.00 0.35 0.00 97 1019.9
20260902045322 61 281 0.0 1.0 0.00 0.35 0.00 97 1019.9
20260902044347 61 281 0.0 1.0 0.00 0.35 0.00 97 1019.6
20260902043318 61 281 0.0 1.0 0.00 0.35 0.00 97 1019.6
20260902042338 61 281 0.0 1.0 0.01 0.35 0.00 97 1019.7
20260902041315 61 276 0.0 1.0 0.01 0.35 0.00 97 1019.8
20260902040335 61 275 0.0 1.0 0.01 0.35 0.00 97 1019.7
20260902035321 62 275 0.0 1.0 0.01 0.35 0.35 97 1019.6
20260902034319 62 276 0.0 0.0 0.01 0.35 0.35 97 1019.6
20260902033313 61 276 0.0 1.0 0.01 0.35 0.35 97 1019.4
20260902032333 62 275 0.0 1.0 0.00 0.34 0.34 97 1019.3
20260902031328 62 318 0.0 0.0 0.00 0.34 0.34 97 1019.2
20260902030323 61 319 0.0 0.0 0.00 0.34 0.34 97 1019.3
20260902025315 62 268 0.0 0.0 0.00 0.34 0.34 97 1019.0
20260902024356 62 269 0.0 1.0 0.00 0.34 0.34 97 1019.0
20260902023328 62 288 0.0 2.0 0.00 0.34 0.34 97 1018.9
20260902022321 62 297 0.0 0.0 0.00 0.34 0.34 97 1019.1
20260902021313 62 295 0.0 1.0 0.00 0.34 0.34 97 1019.2
20260902020333 62 288 0.0 1.0 0.00 0.34 0.34 96 1018.9
20260902015329 62 288 0.0 1.0 0.00 0.34 0.34 96 1018.7
20260902014320 62 289 0.0 0.0 0.00 0.34 0.34 96 1018.8
20260902013329 62 289 0.0 1.0 0.00 0.34 0.34 96 1018.6
20260902012325 62 284 0.0 1.0 0.00 0.34 0.34 96 1018.3
20260902011345 62 282 0.0 1.0 0.00 0.34 0.34 96 1018.2
20260902010343 62 301 0.0 1.0 0.00 0.34 0.34 96 1018.0
20260902005316 62 316 0.0 1.0 0.02 0.34 0.34 96 1018.2
20260902004356 62 283 0.0 1.0 0.02 0.34 0.34 96 1018.1
20260902003329 62 283 0.0 1.0 0.02 0.34 0.34 96 1017.9
20260902002325 62 283 0.0 1.0 0.02 0.34 0.34 96 1017.9
20260902001315 62 287 0.0 0.0 0.02 0.34 0.34 96 1018.0
20260902000359 62 288 0.0 3.0 0.02 0.34 0.34 95 1017.8
20260901235327 63 282 0.0 1.0 0.00 0.32 0.32 95 1017.7
20260901234322 63 295 0.0 2.0 0.00 0.32 0.32 95 1017.5
20260901233315 63 333 0.0 2.0 0.00 0.32 0.32 95 1017.4
20260901232334 63 283 0.0 1.0 0.00 0.32 0.32 95 1017.5
20260901231328 64 283 0.0 2.0 0.00 0.32 0.32 95 1017.5
20260901230325 64 288 0.0 2.0 0.00 0.32 0.32 95 1017.3
20260901225313 64 293 1.0 2.0 0.00 0.32 0.32 95 1017.3
20260901224336 64 281 1.0 2.0 0.00 0.32 0.32 94 1017.0
20260901223330 65 296 0.0 1.0 0.00 0.32 0.32 95 1016.9
20260901222322 65 289 0.0 2.0 0.00 0.32 0.32 94 1016.8
20260901221312 66 281 0.0 2.0 0.00 0.32 0.32 95 1016.7
20260901220333 67 284 0.0 3.0 0.00 0.32 0.32 95 1016.6
20260901215325 68 283 1.0 2.0 0.00 0.32 0.32 94 1016.1
20260901214336 68 281 0.0 2.0 0.00 0.32 0.32 94 1016.1
20260901213332 69 292 0.0 1.0 0.00 0.32 0.32 93 1016.2
20260901212323 70 345 0.0 1.0 0.00 0.32 0.32 93 1016.1
20260901211321 71 259 0.0 1.0 0.00 0.32 0.32 93 1015.9
20260901210329 72 259 0.0 1.0 0.00 0.32 0.32 93 1016.0
20260901205325 72 256 0.0 0.0 0.00 0.32 0.32 92 1015.8
20260901204320 73 266 0.0 0.0 0.00 0.32 0.32 92 1015.8
20260901203314 74 266 0.0 1.0 0.00 0.32 0.32 92 1015.6
20260901202331 74 316 0.0 0.0 0.00 0.32 0.32 92 1015.6
20260901201323 75 316 0.0 0.0 0.00 0.32 0.32 92 1015.5
20260901200345 75 316 0.0 0.0 0.00 0.32 0.32 91 1015.5
20260901195321 75 316 0.0 0.0 0.00 0.32 0.32 91 1015.5
20260901194319 75 316 0.0 0.0 0.00 0.32 0.32 91 1015.5
20260901193336 75 315 0.0 0.0 0.00 0.32 0.32 91 1015.6
20260901192332 76 315 0.0 1.0 0.00 0.32 0.32 90 1015.4
20260901191323 75 356 0.0 1.0 0.00 0.32 0.32 93 1015.3
20260901190317 74 356 0.0 0.0 0.00 0.32 0.32 94 1015.3
20260901185337 74 356 0.0 0.0 0.00 0.32 0.32 94 1015.5
20260901184336 73 356 0.0 0.0 0.00 0.32 0.32 95 1015.6
20260901183330 73 356 0.0 1.0 0.00 0.32 0.32 95 1015.9
20260901182328 73 42 0.0 0.0 0.00 0.32 0.32 95 1015.8
20260901181322 73 42 0.0 0.0 0.00 0.32 0.32 95 1015.7
20260901180319 73 42 0.0 1.0 0.00 0.32 0.32 94 1015.8
20260901175315 73 42 0.0 1.0 0.00 0.32 0.32 94 1015.8
20260901174354 73 42 0.0 0.0 0.00 0.32 0.32 95 1015.8
20260901173328 73 42 0.0 1.0 0.00 0.32 0.32 95 1015.5
20260901172317 73 33 0.0 0.0 0.00 0.32 0.32 96 1015.5
20260901171315 73 33 0.0 1.0 0.00 0.32 0.32 97 1015.7
20260901170333 72 33 0.0 0.0 0.00 0.32 0.32 97 1015.6
20260901165325 72 33 0.0 1.0 0.00 0.32 0.32 97 1015.5
20260901164324 72 33 0.0 0.0 0.00 0.32 0.32 97 1015.7
20260901163318 71 33 0.0 1.0 0.00 0.32 0.32 97 1016.2
20260901162329 71 31 0.0 0.0 0.00 0.32 0.32 97 1016.2
20260901121342 68 171 0.0 0.0 0.00 0.23 0.23 97 1017.0
20260901120328 68 172 0.0 0.0 0.00 0.23 0.23 97 1017.1
20260901115336 68 172 0.0 0.0 0.00 0.23 0.23 97 1017.1
20260901114327 68 172 0.0 0.0 0.00 0.23 0.23 97 1017.1
20260901113317 68 172 0.0 0.0 0.00 0.23 0.23 97 1016.9
20260901112334 68 171 0.0 0.0 0.00 0.23 0.23 97 1016.9
20260901111325 68 172 0.0 0.0 0.00 0.23 0.23 97 1017.0
20260901110314 68 172 0.0 0.0 0.00 0.23 0.23 97 1017.0
20260901105330 67 172 0.0 0.0 0.00 0.23 0.23 97 1017.0
20260901104321 67 172 0.0 0.0 0.00 0.23 0.23 97 1017.0
20260901103357 67 172 0.0 0.0 0.00 0.23 0.23 97 1016.9
20260901102328 67 172 0.0 0.0 0.00 0.23 0.23 97 1016.9
20260901101347 67 172 0.0 0.0 0.00 0.23 0.23 97 1016.5
20260901100315 67 171 0.0 0.0 0.00 0.23 0.23 97 1016.8